This is the latest recevied weather packets stored in our database for station/object DF2AP-13. If no packets are shown the sender has not sent any weather packets the latest 10 day(s).
| Time | Temp. | Humidity | Pressure | Rain* | Wind** | Luminosity | Snow |
|---|---|---|---|---|---|---|---|
| 1777612527 | 3.33° C | 85% | 1032.8 hPa | - | - | - | - |
| 1777611927 | 2.78° C | 87% | 1032.9 hPa | - | - | - | - |
| 1777611327 | 2.22° C | 86% | 1032.9 hPa | - | - | - | - |
| 1777610727 | 2.22° C | 86% | 1032.8 hPa | - | - | - | - |
| 1777610127 | 2.22° C | 86% | 1032.6 hPa | - | - | - | - |
| 1777609527 | 2.22° C | 87% | 1032.7 hPa | - | - | - | - |
| 1777608927 | 1.67° C | 87% | 1032.6 hPa | - | - | - | - |
| 1777608327 | 2.22° C | 86% | 1032.5 hPa | - | - | - | - |
| 1777607727 | 2.22° C | 86% | 1032.5 hPa | - | - | - | - |
| 1777607127 | 2.22° C | 86% | 1032.5 hPa | - | - | - | - |
| 1777606533 | 2.22° C | 86% | 1032.5 hPa | - | - | - | - |
| 1777605927 | 2.22° C | 85% | 1032.5 hPa | - | - | - | - |
| 1777604727 | 2.22° C | 83% | 1032.5 hPa | - | - | - | - |
| 1777604127 | 2.22° C | 82% | 1032.5 hPa | - | - | - | - |
| 1777603527 | 2.78° C | 81% | 1032.6 hPa | - | - | - | - |
| 1777602927 | 2.78° C | 81% | 1032.6 hPa | - | - | - | - |
| 1777602327 | 2.78° C | 81% | 1032.6 hPa | - | - | - | - |
| 1777601727 | 2.78° C | 81% | 1032.7 hPa | - | - | - | - |
| 1777601127 | 2.78° C | 80% | 1032.6 hPa | - | - | - | - |
| 1777600527 | 3.33° C | 81% | 1032.4 hPa | - | - | - | - |
| 1777599927 | 3.33° C | 80% | 1032.4 hPa | - | - | - | - |
| 1777599327 | 2.78° C | 83% | 1032.2 hPa | - | - | - | - |
| 1777598727 | 2.78° C | 82% | 1032.2 hPa | - | - | - | - |
| 1777598127 | 2.78° C | 84% | 1032.3 hPa | - | - | - | - |
| 1777597527 | 2.78° C | 84% | 1032.3 hPa | - | - | - | - |
* Rain since midnight (hover to see other rain measurements)
** Current wind speed in m/s (hover to see current wind gust speed)